Akron Canton, OH

2:20 AM EDT on June 24, 2018 (GMT -0400)
Akron-Canton Regional

Weather History for KCAK - April, 2011

Change the Weather History Date:

Sunday, April 17, 2011

  Actual Average Record
Temperature  
Mean Temperature 47 °F 50 °F  
Max Temperature 57 °F 60 °F 85 °F (1896)
Min Temperature 37 °F 39 °F 22 °F (1904)
Degree Days  
Heating Degree Days 18 15  
Month to date heating degree days 278 310  
Since 1 July heating degree days 5894 5705  
Cooling Degree Days 0 0  
Month to date cooling degree days 0 0  
Year to date cooling degree days 0 0  
Moisture  
Dew Point 28 °F    
Average Humidity 51    
Maximum Humidity 76    
Minimum Humidity 26    
Precipitation  
Precipitation T in 0.12 in 0.69 in (1963)
Month to date precipitation 2.65 2.04  
Year to date precipitation 13.16 9.94  
Snow  
Snow 0.00 in 0.10 in - ()
Month to date snowfall T 2.3  
Since 1 July snowfall 65.3 47.0  
Snow Depth 0.00 in    
Sea Level Pressure  
Sea Level Pressure 29.74 in    
Wind  
Wind Speed 19 mph (West)    
Max Wind Speed 35 mph    
Max Gust Speed 52 mph    
Visibility 10 miles    
Events Rain    
T = Trace of Precipitation, MM = Missing Value Source: NWS Daily Summary

Daily Weather History Graph

Daily Weather History Graph

Search for Another Location

Airport or City:

Astronomy

Apr. 17, 2011 Rise Set
Actual Time 6:44 AM EDT 8:07 PM EDT
Civil Twilight 6:15 AM EDT 8:35 PM EDT
Nautical Twilight 5:41 AM EDT 9:10 PM EDT
Astronomical Twilight 5:05 AM EDT 9:46 PM EDT
Moon 8:04 PM EDT (4/17) 6:00 AM EDT (4/17)
Length of Visible Light 14h 20m
Length of Day
13h 23m
Full, 100% of the Moon is Illuminated
Apr 17
Full
Apr 17
Full
Apr 24
Last Quarter
May 3
New
May 10
First Quarter

Hourly Weather History & Observations

Time (EDT) Temp. Windchill Dew Point Humidity Pressure Visibility Wind Dir Wind Speed Gust Speed Precip Events Conditions
12:51 AM 39.0 °F 28.5 °F 30.9 °F 73% 29.67 in 10.0 mi West 23.0 mph 36.8 mph 0.00 in   Overcast
1:51 AM 37.9 °F 27.9 °F 30.0 °F 73% 29.68 in 10.0 mi West 19.6 mph 27.6 mph N/A   Overcast
2:51 AM 37.9 °F 26.8 °F 32.0 °F 79% 29.71 in 10.0 mi West 24.2 mph 34.5 mph 0.00 in Rain Light Rain
3:51 AM 37.9 °F 28.5 °F 28.0 °F 68% 29.73 in 10.0 mi West 17.3 mph 26.5 mph 0.00 in   Overcast
4:51 AM 37.9 °F 29.6 °F 28.0 °F 68% 29.74 in 10.0 mi WSW 13.8 mph 23.0 mph N/A   Overcast
5:51 AM 37.9 °F 28.9 °F 28.9 °F 70% 29.75 in 10.0 mi WSW 16.1 mph 24.2 mph N/A   Overcast
6:51 AM 39.0 °F 30.6 °F 26.1 °F 60% 29.76 in 10.0 mi West 15.0 mph 21.9 mph N/A   Overcast
7:28 AM 39.2 °F 30.8 °F 28.4 °F 65% 29.75 in 10.0 mi SW 15.0 mph - N/A   Overcast
7:51 AM 39.0 °F 29.9 °F 30.0 °F 70% 29.76 in 10.0 mi SW 17.3 mph - N/A   Overcast
8:51 AM 41.0 °F 32.5 °F 32.0 °F 70% 29.75 in 10.0 mi SW 17.3 mph 24.2 mph N/A   Overcast
9:51 AM 43.0 °F 34.2 °F 34.0 °F 71% 29.75 in 8.0 mi SW 20.7 mph 25.3 mph 0.00 in Rain Light Rain
10:51 AM 45.0 °F 37.1 °F 36.0 °F 71% 29.74 in 8.0 mi WSW 19.6 mph 31.1 mph 0.00 in Rain Light Rain
11:51 AM 48.9 °F - 34.0 °F 56% 29.72 in 10.0 mi WSW 25.3 mph 43.7 mph 0.00 in   Overcast
12:51 PM 51.1 °F - 32.0 °F 48% 29.70 in 10.0 mi West 24.2 mph 41.4 mph N/A   Mostly Cloudy
1:17 PM 51.8 °F - 30.2 °F 44% 29.68 in 10.0 mi WSW 21.9 mph 40.3 mph N/A   Mostly Cloudy
1:51 PM 54.0 °F - 28.9 °F 38% 29.70 in 10.0 mi West 21.9 mph 39.1 mph N/A   Mostly Cloudy
2:51 PM 55.0 °F - 23.0 °F 29% 29.69 in 10.0 mi West 31.1 mph 44.9 mph N/A   Scattered Clouds
3:51 PM 55.9 °F - 23.0 °F 28% 29.68 in 10.0 mi West 28.8 mph 36.8 mph N/A   Mostly Cloudy
4:51 PM 55.9 °F - 21.0 °F 26% 29.69 in 10.0 mi West 27.6 mph 39.1 mph N/A   Mostly Cloudy
5:51 PM 54.0 °F - 21.9 °F 29% 29.71 in 10.0 mi West 25.3 mph 35.7 mph N/A   Overcast
6:51 PM 53.1 °F - 21.0 °F 29% 29.74 in 10.0 mi West 24.2 mph 34.5 mph N/A   Overcast
7:51 PM 52.0 °F - 21.9 °F 31% 29.76 in 10.0 mi West 19.6 mph 28.8 mph N/A   Overcast
8:51 PM 51.1 °F - 26.1 °F 38% 29.80 in 10.0 mi WNW 10.4 mph - N/A   Overcast
9:51 PM 48.9 °F - 28.0 °F 44% 29.84 in 10.0 mi WNW 13.8 mph 18.4 mph N/A   Overcast
10:51 PM 43.0 °F 39.5 °F 28.0 °F 56% 29.88 in 10.0 mi NW 5.8 mph - N/A   Mostly Cloudy
11:51 PM 44.1 °F 40.1 °F 28.0 °F 53% 29.90 in 10.0 mi NW 6.9 mph - N/A   Mostly Cloudy